User: anonymous   Login
Location: STAR School
(35.3054°N, 111.2976°W)
Time: 13:40:50
(UTC-07:00)
Language:

N. Korean satellite - Orbit

View from above orbital plane
View from above orbital plane
View from above satellite
View from above satellite

Ground track
Ground track

The orbit data is extracted from the following two-line orbital elements,

1 39026U 12072A   19322.51424307  .00001311  00000-0  49542-4 0  9999
2 39026  97.2159 320.7822 0035965 278.4896  81.2269 15.28177353384938
Epoch (UTC): 18 November 2019 12:20:30
Eccentricity: 0.0035965
inclination: 97.2159°
perigee height: 456 km
apogee height: 506 km
right ascension of ascending node: 320.7822°
argument of perigee: 278.4896°
revolutions per day: 15.28177353
mean anomaly at epoch: 81.2269°
orbit number at epoch: 38493

The dashed part of the orbit path shows where the satellite is in the earth's shadow,  

DLR